Location: Hope
(40.9110°N, 74.9680°W)
Time: 10:36:36
(UTC-05:00)

OTV 5 (USA 277) - Pass Details

Date: 29 January 2019
Orbit: 342 x 346 km, 54.5° (Epoch: 17 February)

Event Time Altitude Azimuth Distance (km) Brightness Sun altitude
Exits shadow 06:03:34 25° 314° (NW) 745 ? -13.4°
Maximum altitude 06:03:55 26° 327° (NNW) 730 ? -13.3°
Drops below altitude 10° 06:06:24 10° 27° (NNE) 1,295 ? -12.8°
Sets 06:08:36 0° 41° (NE) 2,139 ? -12.4°
